Location: Unspecified
(0.0000°N, 0.0000°E)
Time: 17:08:54
(UTC+00:00)

Interbol-2 - Pass Details

Date: 07 June 2023
Orbit: 911 x 19062 km, 62.8° (Epoch: 28 September)

Event Time Altitude Azimuth Distance (km) Brightness Sun altitude
Rises 21:37:19 0° 222° (SW) 7,266 10.6 -48.7°
Reaches altitude 10° 21:40:34 10° 227° (SW) 7,035 10.4 -49.4°
Maximum altitude 22:10:06 53° 295° (WNW) 10,261 11.0 -55.1°
Drops below altitude 10° 01:04:15 10° 10° (N) 21,681 13.1 -62.2°
Sets 01:55:05 0° 31° (NNE) 17,220 12.9 -53.7°
